Location: Lake Hudson State Recreational Area
(41.8372°N, 84.2445°W)
Time: 00:27:01
(UTC-05:00)

Amateur Radio Satellites - All Passes

Search period start: 12 December 2017 23:57
Search period end: 13 December 2017 23:57
Location: Lake Hudson State Recreational Area, 41.8372°N, 84.2445°W

Satellite Date Start Highest point End Downlink Frequencies (MHz)
Time Altitude Azimuth
UNISAT 6 13 Dec 00:00:01 00:01:45 12° 298° (WNW) 00:03:29 437.425
QB50P2 13 Dec 00:13:39 00:17:42 44° 99° (E) 00:21:44 145.880/145.840
FALCONSAT 3 13 Dec 00:17:28 00:20:25 23° 167° (SSE) 00:23:21 435.103
DUCHIFAT 1 13 Dec 00:22:22 00:26:16 37° 98° (E) 00:30:09 145.980
AIST 2D 13 Dec 00:23:41 00:26:59 37° 288° (WNW) 00:30:17 435.315
UKube-1 13 Dec 00:35:22 00:37:15 13° 61° (ENE) 00:39:09 .
SPROUT 13 Dec 00:38:40 00:42:47 49° 260° (W) 00:46:56 437.525
DX 1 13 Dec 00:44:37 00:48:12 25° 67° (ENE) 00:51:47 434.975-435.025
NANOSAT C BR1 13 Dec 00:47:21 00:51:34 85° 101° (E) 00:55:47 145.865
SO-50 13 Dec 00:51:01 00:55:36 54° 53° (NE) 01:00:14 436.795
AO-85 13 Dec 00:57:31 00:58:52 11° 325° (NW) 01:00:14 145.980
EO-79 13 Dec 01:01:19 01:05:28 58° 286° (WNW) 01:09:35 145.935-145.965
BUGSAT 1 13 Dec 01:11:23 01:14:58 29° 97° (E) 01:18:31 437.445
AO-91 13 Dec 01:11:34 01:12:39 11° 90° (E) 01:13:43 145.960
VELOX 1 13 Dec 01:18:07 01:22:05 32° 263° (W) 01:26:06 145.980
RS-15 13 Dec 01:23:40 01:35:04 60° 247° (WSW) 01:45:52 29.354- 29.394
POLYITAN 1 13 Dec 01:24:01 01:27:48 33° 290° (WNW) 01:31:36 437.675
50 SAT 13 Dec 01:35:50 01:39:01 79° 258° (WSW) 01:42:12 437.505
Oscar 19 13 Dec 01:45:16 01:50:11 41° 98° (E) 01:55:03 437.125/150
QB50P2 13 Dec 01:50:26 01:53:07 17° 295° (WNW) 01:55:50 145.880/145.840
ITUPSAT 1 13 Dec 01:51:02 01:53:17 13° 60° (ENE) 01:55:32 437.325
YUBILEINY 13 Dec 01:54:50 01:59:02 14° 74° (ENE) 02:03:15 435.215
FALCONSAT 3 13 Dec 01:55:46 01:59:01 30° 182° (S) 02:02:15 435.103
DUCHIFAT 1 13 Dec 01:58:40 02:01:39 19° 294° (WNW) 02:04:37 145.980
UKube-1 13 Dec 02:08:25 02:12:43 66° 258° (WSW) 02:17:01 .
Gurwin Techsat 1B 13 Dec 02:10:41 02:15:52 51° 100° (E) 02:21:01 435.225
DX 1 13 Dec 02:20:23 02:24:14 30° 263° (W) 02:28:07 434.975-435.025
SO-50 13 Dec 02:32:26 02:35:41 19° 249° (WSW) 02:38:56 436.795
CUBESAT XI-V 13 Dec 02:39:06 02:41:25 14° 62° (ENE) 02:43:46 437.345
AO-91 13 Dec 02:46:09 02:49:25 36° 288° (WNW) 02:52:33 145.960
BUGSAT 1 13 Dec 02:47:03 02:50:09 22° 293° (WNW) 02:53:15 437.445
AO-7 13 Dec 02:51:47 02:57:56 22° 92° (E) 03:04:03 .
PCSat 13 Dec 02:52:20 02:55:06 14° 38° (NE) 02:57:53 145.827
MOZHAYETS 4 13 Dec 02:55:32 03:00:05 79° 74° (ENE) 03:04:39
BEESAT 13 Dec 02:58:49 03:03:30 61° 73° (ENE) 03:08:11 436.000
Oscar 19 13 Dec 03:25:02 03:29:16 26° 295° (WNW) 03:33:29 437.125/150
ITUPSAT 1 13 Dec 03:25:44 03:30:28 74° 257° (WSW) 03:35:15 437.325
FALCONSAT 3 13 Dec 03:34:55 03:37:34 19° 197° (SSW) 03:40:13 435.103
RS-15 13 Dec 03:42:38 03:44:36 11° 268° (W) 03:46:33 29.354- 29.394
YUBILEINY 13 Dec 03:45:28 03:54:14 77° 95° (E) 04:03:05 435.215
Gurwin Techsat 1B 13 Dec 03:51:27 03:55:26 22° 297° (WNW) 03:59:24 435.225
M-CUBED/EXP-1 PRIME 13 Dec 04:03:20 04:07:48 52° 104° (ESE) 04:11:59 437.505
CUBESAT XI-V 13 Dec 04:13:34 04:18:12 68° 259° (W) 04:22:52 437.345
STARS 13 Dec 04:15:14 04:16:05 10° 60° (ENE) 04:16:58 437.465
ITAMSAT 1 13 Dec 04:32:06 04:37:19 83° 105° (ESE) 04:42:29 435.822/435.867
PCSat 13 Dec 04:34:05 04:39:31 70° 59° (ENE) 04:44:54 145.827
BEESAT 13 Dec 04:39:09 04:41:39 14° 269° (W) 04:44:10 436.000
AO-7 13 Dec 04:43:06 04:51:30 80° 290° (WNW) 04:59:52 .
DOVE 4 13 Dec 04:48:35 04:52:13 23° 93° (E) 04:55:41 437.250
BEESAT 3 13 Dec 04:58:38 05:01:56 25° 47° (NE) 05:05:11 437.485
KKS-1 13 Dec 04:59:00 05:03:27 76° 75° (ENE) 05:07:55 437.445
BEESAT 2 13 Dec 05:34:13 05:37:07 19° 44° (NE) 05:39:59 435.950
M-CUBED/EXP-1 PRIME 13 Dec 05:38:37 05:41:41 18° 302° (WNW) 05:44:40 437.505
LilacSat-2 13 Dec 05:43:33 05:45:57 16° 92° (E) 05:48:20 437.200
YUBILEINY 13 Dec 05:45:13 05:51:59 24° 296° (WNW) 05:58:51 435.215
CUTE-I 13 Dec 05:46:01 05:49:08 16° 90° (E) 05:52:14 437.470
STARS 13 Dec 05:47:21 05:51:45 83° 259° (W) 05:56:10 437.465
XW-2D 13 Dec 05:59:52 06:02:59 23° 95° (E) 06:06:04 145.860 - 145.880
AO-85 13 Dec 06:04:25 06:07:26 16° 40° (NE) 06:10:32 145.980
NUDT-PHONESAT 13 Dec 06:12:37 06:15:31 21° 94° (E) 06:18:23 437.300
KAITUO 1B 13 Dec 06:12:57 06:15:59 22° 95° (E) 06:19:00 145.475/437.950
ITAMSAT 1 13 Dec 06:13:33 06:16:03 14° 302° (WNW) 06:18:33 435.822/435.867
XW-2B 13 Dec 06:15:21 06:18:52 33° 97° (E) 06:22:22 145.730 - 145.750
PCSat 13 Dec 06:19:00 06:22:17 16° 256° (WSW) 06:25:33 145.827
DOVE 4 13 Dec 06:25:55 06:29:57 32° 291° (WNW) 06:33:47 437.250
XW-2F 13 Dec 06:28:56 06:32:39 46° 99° (E) 06:36:20 145.980 - 146.000
CUTE 1.7 + AOD 2 13 Dec 06:35:35 06:38:09 15° 91° (E) 06:40:41 437.475
BEESAT 3 13 Dec 06:35:59 06:39:29 31° 245° (WSW) 06:42:54 437.485
AO-7 13 Dec 06:37:29 06:43:00 20° 311° (NW) 06:48:32 .
KKS-1 13 Dec 06:40:09 06:40:29 10° 271° (W) 06:40:50 437.445
FO-29 13 Dec 06:40:35 06:46:24 24° 58° (ENE) 06:52:15 435.910
XW-2C 13 Dec 06:42:23 06:46:15 76° 102° (ESE) 06:50:05 145.795 - 145.815
NO-84 13 Dec 06:51:15 06:53:26 18° 127° (SE) 06:55:42 435.350 FM
CUBEBUG 2 13 Dec 07:04:21 07:07:24 19° 93° (E) 07:10:29 437.445
STRAND 1 13 Dec 07:06:49 07:11:56 75° 73° (ENE) 07:17:03 437.568
UWE-3 13 Dec 07:09:02 07:10:39 12° 90° (E) 07:12:16 435.000/436.395/437.385
BEESAT 2 13 Dec 07:11:12 07:15:06 49° 242° (WSW) 07:18:55 435.950
HO-68 13 Dec 07:12:50 07:19:39 44° 99° (E) 07:26:23 435.675
LilacSat-2 13 Dec 07:16:45 07:20:20 37° 288° (WNW) 07:23:55 437.200
CUTE-I 13 Dec 07:24:21 07:29:39 67° 287° (WNW) 07:34:54 437.470
XW-2D 13 Dec 07:33:53 07:37:04 25° 291° (WNW) 07:40:14 145.860 - 145.880
ZACube-1 13 Dec 07:37:43 07:39:47 13° 91° (E) 07:41:52 437.345
AO-85 13 Dec 07:43:36 07:48:24 88° 245° (WSW) 07:53:34 145.980
NUDT-PHONESAT 13 Dec 07:46:09 07:49:19 26° 290° (WNW) 07:52:27 437.300
KAITUO 1B 13 Dec 07:46:45 07:49:54 25° 290° (WNW) 07:53:00 145.475/437.950
XW-2B 13 Dec 07:50:10 07:52:47 18° 293° (WNW) 07:55:24 145.730 - 145.750
SEEDS 13 Dec 07:50:26 07:54:41 63° 101° (E) 07:58:52 437.485
Oscar 11 13 Dec 08:00:33 08:02:37 13° 90° (E) 08:04:41 .
XW-2F 13 Dec 08:04:27 08:06:20 13° 295° (WNW) 08:08:13 145.980 - 146.000
CUTE 1.7 + AOD 2 13 Dec 08:10:05 08:14:13 46° 287° (WNW) 08:18:18 437.475
AO-73 13 Dec 08:11:25 08:15:08 27° 96° (E) 08:18:52 145.935
AAUSAT CUBESAT 2 13 Dec 08:14:46 08:18:51 49° 99° (E) 08:22:52 437.432
FO-29 13 Dec 08:22:48 08:30:30 82° 256° (WSW) 08:38:26 435.910
NO-84 13 Dec 08:27:29 08:30:24 38° 326° (NNW) 08:33:33 435.350 FM
CUBEBUG 2 13 Dec 08:40:12 08:44:07 37° 289° (WNW) 08:48:06 437.445
UWE-3 13 Dec 08:43:12 08:47:27 62° 285° (WNW) 08:51:47 435.000/436.395/437.385
XW-2A 13 Dec 08:47:05 08:50:27 54° 286° (WNW) 08:53:48 145.665 - 145.685
STRAND 1 13 Dec 08:49:21 08:51:39 13° 271° (W) 08:53:57 437.568
PRISM 13 Dec 08:58:21 08:58:56 10° 61° (ENE) 08:59:30 437.425
HO-68 13 Dec 09:00:47 09:07:13 37° 297° (WNW) 09:13:38 435.675
O/OREOS (USA 219) 13 Dec 09:09:48 09:14:21 70° 110° (ESE) 09:18:56 437.305
ZACube-1 13 Dec 09:12:07 09:16:22 57° 286° (WNW) 09:20:42 437.345
TIGRISAT 13 Dec 09:17:25 09:21:34 50° 73° (ENE) 09:25:42 435.000
UNISAT 6 13 Dec 09:20:08 09:24:22 59° 74° (ENE) 09:28:35 437.425
AO-85 13 Dec 09:26:41 09:28:14 11° 253° (WSW) 09:29:50 145.980
SEEDS 13 Dec 09:28:00 09:29:48 12° 297° (WNW) 09:31:34 437.485
DELFI C3 13 Dec 09:32:50 09:36:09 25° 95° (E) 09:39:25 145.870
Oscar 11 13 Dec 09:34:49 09:39:05 56° 286° (WNW) 09:43:21 .
AO-73 13 Dec 09:47:36 09:51:17 28° 291° (WNW) 09:55:01 145.935
AAUSAT CUBESAT 2 13 Dec 09:51:31 09:53:51 15° 296° (WNW) 09:56:11 437.432
Max Valier Satellite 13 Dec 10:03:18 10:06:48 38° 98° (E) 10:10:19 145.860
NO-84 13 Dec 10:07:07 10:08:30 12° 347° (NNW) 10:09:55 435.350 FM
FO-29 13 Dec 10:12:01 10:16:32 16° 275° (W) 10:21:08 435.910
EO-79 13 Dec 10:22:16 10:22:27 10° 61° (ENE) 10:22:38 145.935-145.965
PRISM 13 Dec 10:29:23 10:33:33 77° 258° (WSW) 10:37:44 437.425
EO-88 13 Dec 10:35:04 10:38:44 67° 100° (E) 10:42:23 145.990 - 145.960
POLYITAN 1 13 Dec 10:42:03 10:44:45 17° 65° (ENE) 10:47:28 437.675
O/OREOS (USA 219) 13 Dec 10:51:47 10:54:17 14° 308° (NW) 10:56:46 437.305
TIGRISAT 13 Dec 10:56:13 10:58:32 14° 269° (W) 11:00:49 435.000
AIST 2D 13 Dec 10:57:15 11:00:43 74° 78° (ENE) 11:04:15 435.315
UNISAT 6 13 Dec 10:59:47 11:01:26 12° 270° (W) 11:03:05 437.425
QB50P2 13 Dec 11:06:20 11:10:06 34° 70° (ENE) 11:13:54 145.880/145.840
DELFI C3 13 Dec 11:07:35 11:10:47 24° 291° (WNW) 11:13:57 145.870
LO-87 13 Dec 11:11:25 11:14:08 21° 95° (E) 11:16:51 145.935 - 145.965
nSIGHT-1 13 Dec 11:13:21 11:14:23 11° 130° (SE) 11:15:27 .
DUCHIFAT 1 13 Dec 11:14:19 11:17:53 28° 69° (ENE) 11:21:28 145.980
ESTCUBE 1 13 Dec 11:27:04 11:30:56 27° 95° (E) 11:34:47 437.505/2401.250
Max Valier Satellite 13 Dec 11:38:10 11:40:17 15° 294° (WNW) 11:42:23 145.860
NANOSAT C BR1 13 Dec 11:39:11 11:43:18 63° 74° (ENE) 11:47:26 145.865
NO-84 13 Dec 11:46:04 11:47:07 11° 9° (N) 11:48:11 435.350 FM
ISS 13 Dec 11:47:58 11:50:25 19° 133° (SE) 11:52:51 437.550
EO-79 13 Dec 11:53:22 11:57:33 78° 258° (WSW) 12:01:45 145.935-145.965
Gurwin Techsat 1B 13 Dec 11:56:15 11:58:11 12° 57° (ENE) 12:00:07 435.225
BUGSAT 1 13 Dec 12:01:33 12:04:42 22° 67° (ENE) 12:07:49 437.445
AO-91 13 Dec 12:07:30 12:10:34 17° 66° (ENE) 12:13:30 145.960
POLYITAN 1 13 Dec 12:16:13 12:20:11 42° 261° (W) 12:24:11 437.675
SPROUT 13 Dec 12:24:02 12:27:34 25° 95° (E) 12:31:06 437.525
QB50P2 13 Dec 12:42:50 12:45:57 20° 266° (W) 12:49:06 145.880/145.840
LO-87 13 Dec 12:44:38 12:47:27 23° 291° (WNW) 12:50:17 145.935 - 145.965
nSIGHT-1 13 Dec 12:46:56 12:50:08 82° 325° (NW) 12:53:22 .
DUCHIFAT 1 13 Dec 12:50:09 12:53:31 24° 265° (W) 12:56:53 145.980
Oscar 19 13 Dec 13:02:15 13:07:18 61° 72° (ENE) 13:12:23 437.125/150
ESTCUBE 1 13 Dec 13:03:44 13:07:41 30° 292° (WNW) 13:11:36 437.505/2401.250
VELOX 1 13 Dec 13:07:07 13:11:22 44° 99° (E) 13:15:33 145.980
NANOSAT C BR1 13 Dec 13:18:21 13:19:23 11° 270° (W) 13:20:26 145.865
NO-84 13 Dec 13:22:13 13:25:24 26° 29° (NNE) 13:28:47 435.350 FM
ISS 13 Dec 13:23:27 13:26:40 51° 330° (NNW) 13:29:53 437.550
Gurwin Techsat 1B 13 Dec 13:31:57 13:37:16 84° 74° (ENE) 13:42:38 435.225
BUGSAT 1 13 Dec 13:36:20 13:39:54 29° 263° (W) 13:43:25 437.445
RS-15 13 Dec 13:37:01 13:45:56 24° 100° (E) 13:54:48 29.354- 29.394
AO-91 13 Dec 13:41:46 13:46:41 56° 259° (W) 13:51:11 145.960
AO-7 13 Dec 13:51:00 13:58:10 34° 57° (ENE) 14:05:23 .
YUBILEINY 13 Dec 13:55:38 14:03:46 39° 71° (ENE) 14:11:48 435.215
UKube-1 13 Dec 13:55:45 13:58:52 19° 94° (E) 14:01:58 .
SPROUT 13 Dec 13:59:48 14:03:24 27° 291° (WNW) 14:06:59 437.525
DX 1 13 Dec 14:07:34 14:11:42 42° 99° (E) 14:15:49 434.975-435.025
ITAMSAT 1 13 Dec 14:13:10 14:16:35 18° 61° (ENE) 14:20:00 435.822/435.867
50 SAT 13 Dec 14:23:22 14:26:32 77° 103° (ESE) 14:29:39 437.505
nSIGHT-1 13 Dec 14:24:17 14:26:44 20° 344° (NNW) 14:29:11 .
Oscar 19 13 Dec 14:43:54 14:47:02 16° 269° (W) 14:50:10 437.125/150
VELOX 1 13 Dec 14:44:28 14:47:26 18° 296° (WNW) 14:50:24 145.980
M-CUBED/EXP-1 PRIME 13 Dec 14:48:12 14:52:27 65° 69° (ENE) 14:56:58 437.505
MOZHAYETS 4 13 Dec 14:51:04 14:54:13 18° 92° (E) 14:57:22
NO-84 13 Dec 14:59:05 15:02:53 55° 226° (SW) 15:06:54 435.350 FM
BEESAT 13 Dec 14:59:55 15:02:36 15° 91° (E) 15:05:16 436.000
ISS 13 Dec 15:01:26 15:03:43 17° 349° (N) 15:06:00 437.550
SO-50 13 Dec 15:07:34 15:10:01 15° 109° (ESE) 15:12:29 436.795
Gurwin Techsat 1B 13 Dec 15:15:52 15:17:51 12° 271° (W) 15:19:50 435.225
ITUPSAT 1 13 Dec 15:26:11 15:30:14 27° 96° (E) 15:34:16 437.325
UKube-1 13 Dec 15:31:01 15:35:00 37° 290° (WNW) 15:38:57 .
AO-7 13 Dec 15:42:22 15:50:30 59° 256° (WSW) 15:58:44 .
RS-15 13 Dec 15:44:25 15:56:47 88° 122° (ESE) 16:09:04 29.354- 29.394
DX 1 13 Dec 15:44:34 15:47:34 18° 295° (WNW) 15:50:32 434.975-435.025
ITAMSAT 1 13 Dec 15:50:22 15:55:32 63° 259° (WSW) 16:00:43 435.822/435.867
YUBILEINY 13 Dec 15:52:23 16:00:42 48° 272° (W) 16:08:56 435.215
DOVE 4 13 Dec 15:53:06 15:57:36 30° 68° (ENE) 16:02:02 437.250
nSIGHT-1 13 Dec 16:01:56 16:03:51 15° 4° (N) 16:05:46 .
CUBESAT XI-V 13 Dec 16:09:59 16:14:06 29° 95° (E) 16:18:09 437.345
M-CUBED/EXP-1 PRIME 13 Dec 16:25:25 16:27:17 13° 266° (W) 16:29:11 437.505
MOZHAYETS 4 13 Dec 16:27:10 16:31:35 46° 289° (WNW) 16:36:00
BEESAT 13 Dec 16:36:03 16:40:44 59° 287° (WNW) 16:45:24 436.000
ISS 13 Dec 16:38:57 16:41:09 16° 10° (N) 16:43:21 437.550
XW-2D 13 Dec 16:42:36 16:44:15 13° 64° (ENE) 16:45:55 145.860 - 145.880
SO-50 13 Dec 16:45:31 16:49:56 61° 306° (NW) 16:54:26 436.795
KKS-1 13 Dec 16:51:10 16:53:24 14° 91° (E) 16:55:38 437.445
NUDT-PHONESAT 13 Dec 16:53:51 16:54:36 10° 63° (ENE) 16:55:20 437.300
KAITUO 1B 13 Dec 16:54:32 16:55:55 12° 64° (ENE) 16:57:20 145.475/437.950
XW-2B 13 Dec 16:57:23 16:59:58 18° 67° (ENE) 17:02:33 145.730 - 145.750
ITUPSAT 1 13 Dec 17:03:48 17:08:03 33° 292° (WNW) 17:12:17 437.325
CUTE-I 13 Dec 17:07:31 17:12:01 28° 65° (ENE) 17:16:30 437.470
XW-2F 13 Dec 17:10:07 17:13:08 23° 69° (ENE) 17:16:10 145.980 - 146.000
XW-2C 13 Dec 17:23:37 17:27:06 35° 72° (ENE) 17:30:36 145.795 - 145.815
CUTE 1.7 + AOD 2 13 Dec 17:29:33 17:31:14 12° 62° (ENE) 17:32:55 437.475
DOVE 4 13 Dec 17:30:17 17:35:07 36° 264° (W) 17:39:53 437.250
STARS 13 Dec 17:37:20 17:40:10 17° 93° (E) 17:42:58 437.465
nSIGHT-1 13 Dec 17:37:55 17:40:49 30° 24° (NNE) 17:43:42 .
O/OREOS (USA 219) 13 Dec 17:41:29 17:44:18 16° 53° (NE) 17:47:06 437.305
HO-68 13 Dec 17:41:59 17:48:18 35° 62° (ENE) 17:54:38 435.675
CUBESAT XI-V 13 Dec 17:47:18 17:51:24 30° 292° (WNW) 17:55:27 437.345
LilacSat-2 13 Dec 17:58:04 18:01:50 76° 257° (WSW) 18:05:42 437.200
RS-15 13 Dec 17:59:58 18:10:58 36° 327° (NNW) 18:21:49 29.354- 29.394
CUBEBUG 2 13 Dec 18:03:21 18:06:00 16° 66° (ENE) 18:08:38 437.445
XW-2D 13 Dec 18:14:19 18:17:58 48° 261° (W) 18:21:41 145.860 - 145.880
ISS 13 Dec 18:15:04 18:18:15 44° 29° (NNE) 18:21:24 437.550
NUDT-PHONESAT 13 Dec 18:24:18 18:27:54 56° 259° (W) 18:31:35 437.300
KAITUO 1B 13 Dec 18:25:48 18:29:25 51° 260° (W) 18:33:07 145.475/437.950
KKS-1 13 Dec 18:25:57 18:30:17 56° 287° (WNW) 18:34:36 437.445
SO-50 13 Dec 18:29:56 18:31:20 11° 327° (NNW) 18:32:46 436.795
XW-2B 13 Dec 18:30:27 18:33:52 32° 263° (W) 18:37:20 145.730 - 145.750
ZACube-1 13 Dec 18:35:35 18:36:17 10° 62° (ENE) 18:36:59 437.345
SEEDS 13 Dec 18:41:55 18:45:55 43° 72° (ENE) 18:49:58 437.485
XW-2F 13 Dec 18:44:02 18:47:07 24° 265° (W) 18:50:15 145.980 - 146.000
CUTE-I 13 Dec 18:46:50 18:51:51 40° 262° (W) 18:56:54 437.470
Oscar 11 13 Dec 18:56:45 18:58:04 11° 61° (ENE) 18:59:23 .
XW-2C 13 Dec 18:59:06 19:01:24 15° 268° (W) 19:03:43 145.795 - 145.815
CUTE 1.7 + AOD 2 13 Dec 19:02:17 19:06:29 66° 259° (WSW) 19:10:45 437.475
AAUSAT CUBESAT 2 13 Dec 19:04:49 19:08:33 33° 71° (ENE) 19:12:20 437.432
AO-73 13 Dec 19:07:39 19:10:43 21° 67° (ENE) 19:13:49 145.935
STARS 13 Dec 19:12:33 19:16:41 44° 289° (WNW) 19:20:49 437.465
nSIGHT-1 13 Dec 19:14:03 19:17:05 38° 221° (SW) 19:20:05 .
PCSat 13 Dec 19:15:45 19:21:03 60° 115° (ESE) 19:26:24 145.827
STRAND 1 13 Dec 19:17:35 19:21:43 24° 94° (E) 19:25:49 437.568
XW-2A 13 Dec 19:17:54 19:21:04 43° 74° (ENE) 19:24:18 145.665 - 145.685
O/OREOS (USA 219) 13 Dec 19:19:40 19:24:06 57° 252° (WSW) 19:28:28 437.305
HO-68 13 Dec 19:28:54 19:35:47 48° 260° (W) 19:42:44 435.675
FO-29 13 Dec 19:35:52 19:39:22 14° 84° (E) 19:42:40 435.910
CUBEBUG 2 13 Dec 19:38:16 19:42:18 43° 261° (W) 19:46:17 437.445
UWE-3 13 Dec 19:40:10 19:44:19 76° 257° (WSW) 19:48:29 435.000/436.395/437.385
ISS 13 Dec 19:51:54 19:54:34 23° 226° (SW) 19:57:12 437.550
ZACube-1 13 Dec 20:07:51 20:11:58 72° 259° (W) 20:16:07 437.345
DELFI C3 13 Dec 20:18:50 20:21:20 16° 66° (ENE) 20:23:50 145.870
SEEDS 13 Dec 20:19:10 20:21:48 16° 268° (W) 20:24:27 437.485
RS-15 13 Dec 20:19:20 20:28:29 23° 2° (N) 20:37:21 29.354- 29.394
BEESAT 3 13 Dec 20:24:52 20:28:29 35° 116° (ESE) 20:32:09 437.485
Oscar 11 13 Dec 20:29:16 20:33:34 74° 258° (WSW) 20:37:55 .
AAUSAT CUBESAT 2 13 Dec 20:40:56 20:44:04 20° 267° (W) 20:47:12 437.432
Max Valier Satellite 13 Dec 20:42:51 20:45:25 18° 68° (ENE) 20:48:00 145.860
AO-73 13 Dec 20:43:04 20:46:46 32° 263° (W) 20:50:30 145.935
STRAND 1 13 Dec 20:56:16 21:01:00 40° 291° (WNW) 21:05:43 437.568
PCSat 13 Dec 21:00:34 21:04:51 23° 314° (NW) 21:09:09 145.827
BEESAT 2 13 Dec 21:02:28 21:05:44 24° 113° (ESE) 21:09:02 435.950
EO-88 13 Dec 21:12:49 21:15:58 28° 70° (ENE) 21:19:08 145.990 - 145.960
UNISAT 6 13 Dec 21:13:06 21:14:44 12° 90° (E) 21:16:23 437.425
FO-29 13 Dec 21:18:29 21:25:33 89° 283° (WNW) 21:31:43 435.910
DELFI C3 13 Dec 21:51:58 21:55:44 40° 262° (W) 21:59:32 145.870
AO-85 13 Dec 21:59:28 22:02:37 24° 113° (ESE) 22:05:53 145.980
BEESAT 3 13 Dec 22:02:50 22:06:05 24° 313° (NW) 22:09:22 437.485
PRISM 13 Dec 22:11:46 22:13:53 14° 92° (E) 22:15:58 437.425
Max Valier Satellite 13 Dec 22:15:50 22:19:01 28° 264° (W) 22:22:14 145.860
ESTCUBE 1 13 Dec 22:26:49 22:30:33 26° 67° (ENE) 22:34:19 437.505/2401.250
RS-15 13 Dec 22:34:37 22:45:38 39° 36° (NE) 22:56:04 29.354- 29.394
BEESAT 2 13 Dec 22:39:41 22:43:19 32° 311° (NW) 22:46:59 435.950
TIGRISAT 13 Dec 22:44:29 22:48:49 74° 284° (WNW) 22:53:13 435.000
EO-88 13 Dec 22:47:05 22:49:36 18° 266° (W) 22:52:09 145.990 - 145.960
UNISAT 6 13 Dec 22:47:32 22:51:49 62° 285° (WNW) 22:56:10 437.425
FO-29 13 Dec 23:05:11 23:09:26 17° 306° (NW) 23:13:25 435.910
SPROUT 13 Dec 23:17:44 23:20:55 21° 67° (ENE) 23:24:06 437.525
LO-87 13 Dec 23:19:40 23:23:09 56° 260° (W) 23:26:39 145.935 - 145.965
SO-50 13 Dec 23:36:35 23:39:59 19° 42° (NE) 23:43:24 436.795
EO-79 13 Dec 23:38:38 23:41:16 16° 92° (E) 23:43:53 145.935-145.965
AO-85 13 Dec 23:39:19 23:42:50 31° 312° (NW) 23:46:34 145.980
FALCONSAT 3 13 Dec 23:43:25 23:46:19 22° 166° (SSE) 23:49:13 435.103
PRISM 13 Dec 23:45:26 23:49:24 48° 288° (WNW) 23:53:19 437.425
